Regional Weather Roundup
Issued by NWS Wakefield, VA

Home | Current Version | Previous Version | Graphics & Text | Print | Product List | Glossary On
Versions: 1 2 3 4 5 6 7 8 9 10 11 12 13 14 15 16 17 18 19 20 21 22 23 24 25 26 27 28 29 30 31 32 33 34 35 36 37 38 39 40 41 42 43 44 45 46 47 48 49 50
000
ASUS41 KAKQ 301715
RWRAKQ

REGIONAL WEATHER ROUNDUP
NATIONAL WEATHER SERVICE WAKEFIELD VA
100 PM EDT FRI SEP 30 2016

Note: "fair" indicates few or no clouds below 12,000 feet with no
significant weather and/or obstructions to visibility. * = Denotes
station may not report precipitation (e.g., rain,snow,etc.),
thunder or fog.

VAZ042-051-052>054-056-301800-
NORTHERN VIRGINIA

CITY           SKY/WX    TMP DP  RH WIND       PRES   REMARKS
WASH NATIONAL  CLOUDY    65  63  93 NE16      30.15F
DULLES         CLOUDY    63  59  87 NE15G22   30.16F
FORT BELVOIR   CLOUDY    65  61  86 VRB5      30.15S
QUANTICO       CLOUDY    68  63  84 E13       30.14F
FREDERICKSBRG* CLOUDY    67  67 100 NE7       30.12S
STAFFORD*      CLOUDY    65  65 100 N5        30.17S FOG
WARRENTON      CLOUDY    64  59  83 NE7       30.14F HAZE
CULPEPER*      RAIN      63  63  99 CALM      30.16F
MANASSAS*      CLOUDY    64  63  94 MISG      30.15F
LEESBURG*      CLOUDY    63  63 100 NE8G16    30.18S FOG
WINCHESTER     DRIZZLE   59  57  94 NE5       30.18S
FRONT ROYAL*   CLOUDY    59  59 100 NE6       30.16F
LURAY*         CLOUDY    61  61 100 NE12      30.15F
$$

VAZ048-049-060>072-079>083-301800-
CENTRAL AND SOUTH CENTRAL VIRGINIA

CITY           SKY/WX    TMP DP  RH WIND       PRES   REMARKS
RICHMOND       CLOUDY    72  68  87 NE8       30.09S
CHESTERFIELD*  CLOUDY    72  57  60 E5        30.10F
PETERSBURG*    CLOUDY    73  70  89 NE6       30.09R
HANOVER        CLOUDY    72  67  84 VRB6      30.11S
TAPPAHANNOCK*  CLOUDY    73  73 100 NE9       30.10F FOG
QUINTON*       CLOUDY    73  70  91 E6        30.09R
CHARLOTTSVILLE CLOUDY    64  61  90 NE14      30.12F FOG
GORDONSVILLE*  CLOUDY    63  63 100 NE8       30.12S FOG
ORANGE*          N/A     64  64 100 N6        30.15S FOG
LOUISA*        CLOUDY    70  66  88 NE8       30.11R FOG
BUMPASS*       CLOUDY    65  65 100 CALM      30.11F
FARMVILLE*     CLOUDY    69  68  98 NE8       30.07S FOG
CREWE*         CLOUDY    69  69 100 E5        30.08S
FORT PICKETT*  CLOUDY    70  66  88 E8        30.08S
CHASE CITY*    CLOUDY    74  73  94 E9        30.05S
CLARKSVILLE*   CLOUDY    75  72  88 E9G16     30.04S
SOUTH HILL*    CLOUDY    73  72  98 CALM      30.10F
LAWRENCEVILLE* CLOUDY    74  71  92 MISG      30.06S
EMPORIA*         N/A     75  72  88 NE6       30.07F
$$

VAZ088>098-301800-
SOUTHEAST VIRGINIA

CITY           SKY/WX    TMP DP  RH WIND       PRES   REMARKS
NORFOLK        MOSUNNY   79  73  82 NE9       30.06F
VIRGINIA BEACH PTSUNNY   79  71  76 E10       30.05F
NORFOLK NAVAL  PTSUNNY   81  72  74 E10       30.07F
WEST POINT*    CLOUDY    75  71  85 NE5       30.09F
SALUDA*        CLOUDY    77  74  90 E5        30.07F
NEWPORT NEWS   SUNNY     78  71  79 NE8       30.06F
LANGLEY AFB    PTSUNNY   79  72  77 NE9       30.06F
FORT EUSTIS    MOSUNNY   85  72  64 E8        30.04F
WILLIAMSBURG*  MOSUNNY   82  73  74 CALM      30.07F
HR EXEC AP*    PTSUNNY   82  72  69 SE7       30.07F
FRANKLIN*      CLOUDY    80  71  75 SE5       30.06S
US460-WAKEFLD  CLOUDY    79  71  76 E6        30.06F
$$

VAZ020-022-025-037-045-301800-
WEST CENTRAL AND SOUTHWEST VIRGINIA

CITY           SKY/WX    TMP DP  RH WIND       PRES   REMARKS
STAUNTON*      DRIZZLE   60  59  97 N8        30.13F
WAYNESBORO*    CLOUDY    60  59  96 NE5       30.12F
HOT SPRINGS VA HVY RAIN  46  46 100 E12G20    30.13R VSB<1/4
LYNCHBURG      LGT RAIN  63  63 100 NE12      30.07F FOG
DANVILLE       PTSUNNY   79  70  74 VRB6      30.01F
SOUTH BOSTON*  CLOUDY    76  73  90 E5        30.03F
MARTINSVILLE   MOSUNNY   79  68  68 S7G17     30.02F
ROANOKE        CLOUDY    67  64  90 N7        30.07S
BLACKSBURG     CLOUDY    66  63  89 E7        30.08F
DUBLIN*        MOSUNNY   73  65  74 SE6       30.05F
MARION*        MOSUNNY   74  57  55 E8G18     30.05F
HILLSVILLE*    MOSUNNY   69  61  74 SE6       30.05F
RICHLANDS*     FOG       55  55 100 W3        30.06S VSB<1/4
WISE*          PTSUNNY   63  52  67 CALM      30.07S
ABINGDON*      CLOUDY    60  56  86 W3        30.05F
$$

MDZ021>025-VAZ099-100-301800-
SOUTHERN MARYLAND AND THE DELMARVA PENINSULA

CITY           SKY/WX    TMP DP  RH WIND       PRES   REMARKS
PATUXENT RIVER CLOUDY    71  66  84 NE12      30.10F
BAY BRIDGE APT CLOUDY    64  63  94 MISG      30.16S FOG
LEONARDTOWN    CLOUDY    68  64  88 NE3       30.12F
DOVER          CLOUDY    66  66 100 NE17G26   30.14F
GEORGETOWN     CLOUDY    68  66  93 NE17G26   30.13F
EASTON         CLOUDY    68  64  88 E14G20    30.17F FOG
CAMBRIDGE      CLOUDY    68  64  88 NE10      30.11F
SALISBURY      CLOUDY    71  69  93 NE10      30.11S
OCEAN CITY     MIX PCPN  71  69  93 NE15G21   30.10F
WALLOPS ISLAND CLOUDY    72  72 100 NE15      30.10S FOG
ACCOMACK*      PTSUNNY  N/A N/A N/A E7        30.08S
$$

NCZ012>017-030>032-301800-
NORTH CENTRAL AND EASTERN NORTH CAROLINA

CITY           SKY/WX    TMP DP  RH WIND       PRES   REMARKS
ROANOKE RAPIDS CLOUDY    75  72  88 E5        30.04F
RALEIGH        CLOUDY    79  72  79 SE13      30.03S
ELIZABETH CITY PTSUNNY   81  70  69 SE9       30.07S
AHOSKIE*       CLOUDY    77  73  88 E6        30.04F
EDENTON*       PTSUNNY   84  74  71 SE9       30.06F
CURRITUCK*     PTSUNNY   81  73  76 E7        30.07F
KILL DEVIL HLS PTSUNNY   84  79  84 E8        30.07S HX  96
MANTEO         PTSUNNY   81  75  81 SE9       30.08S
CAPE HATTERAS  SUNNY     85  75  72 SE12      30.06F
TARBORO*       FAIR      80  75  86 CALM      30.04F
GOLDSBORO      LGT RAIN  77  75  94 SE6       30.02S
WASHINGTON     CLOUDY    82  74  75 SE9       30.03F
GREENVILLE     LGT RAIN  79  79 100 S3        30.05S
NEW BERN       CLOUDY    81  74  79 CALM      30.06R
WILMINGTON     CLOUDY    73  72  96 SE5       30.04R
$$

VAZ048-301800-
ELSEWHERE

CITY           SKY/WX    TMP DP  RH WIND       PRES   REMARKS
HARRISBURG PA  CLOUDY    57  55  93 E7        30.24S
BALTIMORE      DRIZZLE   61  60  97 NE14      30.17F FOG
ANNAPOLIS      CLOUDY    65  63  93 NE7       30.16S FOG
ANDREWS AFB    CLOUDY    63  62  94 NE13      30.14F FOG
PHILADELPHIA   DRIZZLE   60  58  92 NE16      30.21F FOG
HENDERSON NC   CLOUDY    73  65  77 E5        30.05S
GREENSBORO     PTSUNNY   82  65  56 S16G22    30.00S
ROCKY MOUNT    CLOUDY    79  75  87 VRB6      30.04F
$$

VAZ100-301800-
MARINE

STATION/POSITION TIME  TEMP    WIND        PRES    WAVE   SWELL
                       AIR SEA DIR/SP/G            HT/PER HT/PER
                 (UTC) (F)     (DEG/KT/KT) (MB)    (FT/S) (FT/S)
BRANDYWINE LGT   1642   67      70/ 29/ 32   N/A
CAPE MAY NJ      1642   67 69   60/ 15/ 24 1020.0F
LEWES DE         1642   68 70   70/ 30/ 35 1019.7F
OCEAN-CITY-INLET 1642   71 72   70/  9/ 13 1019.6F
WACHAPREAGUE VA  1648   74 74   40/  4/  5 1018.7F
THOMAS POINT MD  1700   66 72   50/ 17/ 20 1021.9F
GOOSES REEF MD   1650   69      90/ 19/ 23 1020.0F
COVE POINT MD    1648   69      90/ 18/ 22 1019.9F
SOLOMONS ISLAND  1648   70 74   50/ 12/ 16   N/A
BISHOPS HEAD MD  1642   71 71   50/ 11/ 13 1019.6F
PINEY POINT MD   1648           70/  8/  9   N/A
POTOMAC MD       1650   71      60/ 16/ 17 1017.8F
CAMBRIDGE MD     1642   68 71   50/ 13/ 18 1019.1F
LEWISETTA VA     1648   71 72   70/ 11/ 13 1018.6F
RAPPAHANNOCK LGT 1648          330/  2/  3 1018.9F
STINGRAY PT      1650   75     360/  6/  8 1018.6F
YORK RVR RNG VA  1648   76      80/  6/  6 1017.8F
YORKTOWN VA      1648   75 76   90/  9/ 10 1017.8F
JAMESTOWN VA     1650   77     130/  4/ 10   N/A
DOMINION TERM VA 1648   78      40/  2/  4 1017.9F
KIPTOPEKE VA     1648      75  180/  3/  4   N/A
CHES BAY BRIDGE  1648   75 77   60/ 10/ 12 1017.9F
CAPE HENRY VA    1648   75      70/  9/ 10   N/A
WILLOUBY STN VA  1648   75      60/  9/ 10   N/A
CAPE HENRY BUOY  1642      77                N/A     4/11   2/11
1ST LANDING BUOY 1650   76     100/ 10/ 14 1018.1F
CAPE CHARLES BUO 1556      77                N/A     5/11   3/11
OFFSHORE WE BUOY 1551      76                N/A     6/10   3/11
64NM E OF VA BCH 1650   76 75  140/  4/  4 1018.6F   7/11   7/11
DUCK PIER NC     1648   78 76  110/  9/ 10 1017.9F
44056 DUCK FRF   1641      76                N/A     5/11   2/11
OREGON INLET NC  1648   79 78  120/ 10/ 13 1018.2F
HATTERAS NC      1648   81 79  110/  7/ 10 1017.7F
DIAMOND SHLS NC  1650   81 77  160/ 10/ 12 1018.1F   5/10   5/10
CAPE LOOKOUT NC  1600   72     150/ 20/ 23 1017.7R
$$



USA.gov is the U.S. government's official web portal to all federal, state and local government web resources and services.